Location: Arroyo Retuerta
(40.5469°N, 4.3534°W)
Time: 12:27:59
(UTC+00:00)

Spot 2 Rocket - Pass Details

Date: 01 June 2020
Orbit: 758 x 771 km, 98.6° (Epoch: 05 July)

Event Time Altitude Azimuth Distance (km) Brightness Sun altitude
Exits shadow 20:44:02 14° 132° (SE) 2,046 5.0 -10.3°
Maximum altitude 20:47:59 38° 69° (ENE) 1,151 4.2 -10.9°
Drops below altitude 10° 20:52:37 10° 3° (N) 2,298 6.6 -11.5°
Sets 20:55:03 0° 355° (N) 3,228 7.5 -11.9°
